| time (UTC) | temp F | wind direction | speed MPH | gust MPH | rain 1hr in | rain 24hr in | rain mn in | humidity % | barometer mb |
| 20260504002026 | 58 | 109 | 2.0 | 3.0 | 0.00 | 0.06 | 0.00 | 60 | 1012.8 |
| 20260504001018 | 59 | 107 | 2.0 | 3.0 | 0.00 | 0.06 | 0.00 | 59 | 1012.8 |
| 20260504000039 | 59 | 159 | 2.0 | 3.0 | 0.00 | 0.06 | 0.00 | 58 | 1012.7 |
| 20260503234939 | 60 | 215 | 2.0 | 3.0 | 0.00 | 0.00 | 0.00 | 57 | 1012.7 |
| 20260503234043 | 60 | 0.0 | 1.0 | 0.00 | 0.06 | 0.00 | 56 | 1012.6 | |
| 20260503233035 | 61 | 158 | 0.0 | 2.0 | 0.00 | 0.06 | 0.00 | 54 | 1012.6 |
| 20260503232027 | 61 | 0.0 | 0.0 | 0.00 | 0.06 | 0.00 | 53 | 1012.7 | |
| 20260503231037 | 62 | 0.0 | 1.0 | 0.00 | 0.06 | 0.00 | 52 | 1012.6 | |
| 20260503230039 | 62 | 314 | 1.0 | 2.0 | 0.00 | 0.06 | 0.00 | 52 | 1012.6 |
| 20260503225031 | 62 | 51 | 2.0 | 3.0 | 0.00 | 0.06 | 0.00 | 50 | 1012.8 |
| 20260503224024 | 62 | 182 | 1.0 | 2.0 | 0.00 | 0.06 | 0.00 | 50 | 1012.6 |
| 20260503223045 | 63 | 270 | 0.0 | 2.0 | 0.00 | 0.06 | 0.00 | 51 | 1012.8 |
| 20260503222036 | 64 | 182 | 1.0 | 3.0 | 0.00 | 0.06 | 0.00 | 45 | 1012.7 |
| 20260503221048 | 64 | 196 | 0.0 | 2.0 | 0.00 | 0.06 | 0.00 | 45 | 1012.6 |
| 20260503220019 | 64 | 188 | 1.0 | 2.0 | 0.00 | 0.06 | 0.00 | 45 | 1012.7 |
| 20260503215042 | 64 | 92 | 1.0 | 2.0 | 0.00 | 0.06 | 0.06 | 46 | 1012.7 |
| 20260503214034 | 64 | 199 | 1.0 | 4.0 | 0.00 | 0.06 | 0.06 | 45 | 1012.8 |
| 20260503213025 | 64 | 132 | 2.0 | 4.0 | 0.00 | 0.06 | 0.06 | 45 | 1012.8 |
| 20260503212017 | 64 | 139 | 2.0 | 5.0 | 0.00 | 0.06 | 0.06 | 45 | 1012.7 |
| 20260503211039 | 64 | 124 | 2.0 | 3.0 | 0.00 | 0.06 | 0.06 | 45 | 1012.7 |
| 20260503210031 | 64 | 132 | 2.0 | 4.0 | 0.00 | 0.06 | 0.06 | 44 | 1012.6 |
| 20260503205023 | 64 | 117 | 1.0 | 3.0 | 0.00 | 0.06 | 0.06 | 44 | 1012.6 |
| 20260503204044 | 64 | 117 | 1.0 | 3.0 | 0.00 | 0.06 | 0.06 | 44 | 1012.8 |
| 20260503203056 | 64 | 122 | 1.0 | 3.0 | 0.00 | 0.06 | 0.06 | 43 | 1012.8 |
| 20260503202028 | 64 | 131 | 3.0 | 5.0 | 0.00 | 0.06 | 0.06 | 44 | 1012.8 |
| 20260503201020 | 64 | 129 | 3.0 | 8.0 | 0.00 | 0.06 | 0.06 | 43 | 1012.6 |
| 20260503200100 | 64 | 152 | 3.0 | 6.0 | 0.00 | 0.06 | 0.06 | 43 | 1012.6 |
| 20260503195031 | 64 | 119 | 1.0 | 3.0 | 0.00 | 0.06 | 0.06 | 44 | 1012.6 |
| 20260503194058 | 64 | 87 | 1.0 | 4.0 | 0.00 | 0.06 | 0.06 | 44 | 1012.5 |
| 20260503193020 | 64 | 71 | 1.0 | 4.0 | 0.00 | 0.06 | 0.06 | 43 | 1012.7 |
| 20260503192103 | 64 | 133 | 2.0 | 4.0 | 0.00 | 0.06 | 0.06 | 43 | 1012.9 |
| 20260503191054 | 65 | 138 | 2.0 | 4.0 | 0.00 | 0.06 | 0.06 | 43 | 1013.0 |
| 20260503190026 | 65 | 108 | 1.0 | 3.0 | 0.00 | 0.06 | 0.06 | 41 | 1012.9 |
| 20260503185017 | 66 | 195 | 1.0 | 3.0 | 0.00 | 0.06 | 0.06 | 40 | 1012.9 |
| 20260503184039 | 66 | 231 | 2.0 | 3.0 | 0.00 | 0.06 | 0.06 | 39 | 1012.8 |
| 20260503183050 | 67 | 229 | 1.0 | 4.0 | 0.00 | 0.06 | 0.06 | 39 | 1012.9 |
| 20260503182022 | 67 | 238 | 2.0 | 4.0 | 0.00 | 0.06 | 0.06 | 38 | 1012.9 |
| 20260503181044 | 67 | 201 | 3.0 | 6.0 | 0.00 | 0.06 | 0.06 | 37 | 1012.9 |
| 20260503180036 | 68 | 192 | 3.0 | 6.0 | 0.00 | 0.06 | 0.06 | 37 | 1012.7 |
| 20260503175047 | 68 | 198 | 3.0 | 6.0 | 0.00 | 0.06 | 0.06 | 37 | 1012.7 |
| 20260503174018 | 68 | 206 | 3.0 | 6.0 | 0.00 | 0.06 | 0.06 | 36 | 1012.7 |
| 20260503173040 | 69 | 227 | 2.0 | 5.0 | 0.00 | 0.06 | 0.06 | 35 | 1012.6 |
| 20260503172031 | 69 | 231 | 1.0 | 4.0 | 0.00 | 0.06 | 0.06 | 35 | 1012.7 |
| 20260503171023 | 69 | 251 | 2.0 | 4.0 | 0.00 | 0.06 | 0.06 | 35 | 1012.6 |
| 20260503131030 | 76 | 233 | 3.0 | 6.0 | 0.00 | 0.06 | 0.06 | 36 | 1011.9 |
| 20260503081037 | 65 | 138 | 0.0 | 2.0 | 0.00 | 0.06 | 0.06 | 64 | 1013.8 |
| 20260503072025 | 60 | 145 | 3.0 | 6.0 | 0.02 | 0.05 | 0.05 | 82 | 1014.0 |
| 20260503071037 | 59 | 49 | 2.0 | 4.0 | 0.02 | 0.05 | 0.05 | 85 | 1014.1 |
| 20260503055017 | 57 | 141 | 2.0 | 4.0 | 0.02 | 0.03 | 0.03 | 80 | 1013.6 |
| 20260503054038 | 57 | 169 | 3.0 | 5.0 | 0.03 | 0.03 | 0.03 | 81 | 1013.9 |
| 20260503053029 | 56 | 176 | 2.0 | 4.0 | 0.03 | 0.03 | 0.03 | 81 | 1013.9 |
| 20260503052041 | 56 | 168 | 2.0 | 5.0 | 0.03 | 0.03 | 0.03 | 82 | 1013.5 |
| 20260503051042 | 56 | 246 | 3.0 | 7.0 | 0.03 | 0.03 | 0.03 | 79 | 1013.3 |
| 20260503050034 | 56 | 14 | 3.0 | 7.0 | 0.03 | 0.03 | 0.03 | 78 | 1013.2 |
| 20260503045025 | 58 | 44 | 2.0 | 4.0 | 0.01 | 0.01 | 0.01 | 73 | 1013.8 |
| 20260503044017 | 58 | 354 | 2.0 | 3.0 | 0.00 | 0.00 | 0.00 | 72 | 1013.7 |
| 20260503043039 | 57 | 235 | 2.0 | 4.0 | 0.00 | 0.00 | 0.00 | 73 | 1013.6 |
| 20260503042030 | 57 | 43 | 1.0 | 3.0 | 0.00 | 0.00 | 0.00 | 71 | 1013.4 |
| 20260503041022 | 58 | 143 | 2.0 | 4.0 | 0.00 | 0.00 | 0.00 | 71 | 1013.6 |
| 20260503040044 | 57 | 280 | 1.0 | 3.0 | 0.00 | 0.00 | 0.00 | 71 | 1013.5 |
| 20260503035035 | 57 | 346 | 2.0 | 4.0 | 0.00 | 0.00 | 0.00 | 71 | 1013.3 |
| 20260503034047 | 57 | 125 | 2.0 | 4.0 | 0.00 | 0.00 | 0.00 | 72 | 1013.4 |
| 20260503033019 | 57 | 10 | 2.0 | 4.0 | 0.00 | 0.00 | 0.00 | 72 | 1013.3 |
| 20260503032100 | 57 | 76 | 1.0 | 3.0 | 0.00 | 0.00 | 0.00 | 71 | 1013.4 |
| 20260503031033 | 57 | 9 | 1.0 | 4.0 | 0.00 | 0.00 | 0.00 | 72 | 1013.5 |
| 20260503030024 | 57 | 2 | 3.0 | 6.0 | 0.00 | 0.00 | 0.00 | 70 | 1013.4 |
| 20260503025046 | 57 | 316 | 1.0 | 3.0 | 0.00 | 0.00 | 0.00 | 68 | 1013.4 |
| 20260503024038 | 57 | 158 | 2.0 | 5.0 | 0.00 | 0.00 | 0.00 | 67 | 1013.4 |
| 20260503023029 | 57 | 53 | 2.0 | 4.0 | 0.00 | 0.00 | 0.00 | 69 | 1013.5 |
| 20260503022041 | 57 | 130 | 2.0 | 4.0 | 0.00 | 0.00 | 0.00 | 68 | 1013.7 |
| 20260503021043 | 57 | 100 | 1.0 | 4.0 | 0.00 | 0.00 | 0.00 | 67 | 1013.6 |
| 20260503020035 | 57 | 87 | 0.0 | 4.0 | 0.00 | 0.00 | 0.00 | 67 | 1013.7 |
| 20260503015027 | 57 | 346 | 3.0 | 5.0 | 0.00 | 0.00 | 0.00 | 67 | 1013.7 |
| 20260503014018 | 58 | 314 | 2.0 | 4.0 | 0.00 | 0.00 | 0.00 | 67 | 1013.8 |
| 20260503013039 | 58 | 155 | 0.0 | 1.0 | 0.00 | 0.00 | 0.00 | 67 | 1013.7 |
| 20260503012031 | 58 | 0.0 | 1.0 | 0.00 | 0.00 | 0.00 | 67 | 1013.7 | |
| 20260503011023 | 58 | 0.0 | 1.0 | 0.00 | 0.00 | 0.00 | 66 | 1013.8 | |
| 20260503010045 | 59 | 0.0 | 0.0 | 0.00 | 0.00 | 0.00 | 65 | 1013.9 | |
| 20260503005036 | 59 | 178 | 0.0 | 1.0 | 0.00 | 0.00 | 0.00 | 64 | 1013.9 |
| 20260503004027 | 59 | 0.0 | 0.0 | 0.00 | 0.00 | 0.00 | 63 | 1013.9 | |
| 20260503003020 | 60 | 0.0 | 1.0 | 0.00 | 0.00 | 0.00 | 63 | 1014.0 |